| time (UTC) | temp F | wind direction | speed MPH | gust MPH | rain 1hr in | rain 24hr in | rain mn in | humidity % | barometer mb |
| 20260902105817 | 69 | 17 | 0.0 | 0.0 | 0.00 | 0.04 | 0.03 | 95 | 1019.2 |
| 20260902104813 | 68 | 16 | 0.0 | 0.0 | 0.00 | 0.04 | 0.03 | 95 | 1019.3 |
| 20260902103829 | 68 | 17 | 0.0 | 0.0 | 0.00 | 0.04 | 0.03 | 95 | 1019.4 |
| 20260902102816 | 68 | 17 | 0.0 | 0.0 | 0.00 | 0.04 | 0.03 | 94 | 1019.4 |
| 20260902101832 | 68 | 16 | 0.0 | 0.0 | 0.00 | 0.04 | 0.03 | 94 | 1019.3 |
| 20260902100823 | 68 | 17 | 0.0 | 0.0 | 0.00 | 0.04 | 0.03 | 94 | 1019.2 |
| 20260902095832 | 68 | 16 | 0.0 | 0.0 | 0.00 | 0.04 | 0.03 | 94 | 1019.2 |
| 20260902094848 | 68 | 17 | 0.0 | 0.0 | 0.00 | 0.04 | 0.03 | 94 | 1019.1 |
| 20260902093823 | 69 | 17 | 0.0 | 0.0 | 0.00 | 0.04 | 0.03 | 94 | 1019.1 |
| 20260902092818 | 69 | 17 | 0.0 | 0.0 | 0.00 | 0.04 | 0.03 | 94 | 1019.0 |
| 20260902091834 | 69 | 17 | 0.0 | 0.0 | 0.00 | 0.04 | 0.03 | 94 | 1019.1 |
| 20260902090825 | 69 | 17 | 0.0 | 0.0 | 0.00 | 0.04 | 0.03 | 94 | 1018.9 |
| 20260902085813 | 69 | 17 | 0.0 | 0.0 | 0.00 | 0.04 | 0.03 | 94 | 1018.8 |
| 20260902084829 | 69 | 17 | 0.0 | 0.0 | 0.00 | 0.04 | 0.03 | 94 | 1019.0 |
| 20260902083825 | 69 | 17 | 0.0 | 0.0 | 0.00 | 0.04 | 0.03 | 94 | 1019.0 |
| 20260902082813 | 69 | 17 | 0.0 | 0.0 | 0.00 | 0.04 | 0.03 | 94 | 1018.9 |
| 20260902081858 | 70 | 17 | 0.0 | 0.0 | 0.00 | 0.04 | 0.03 | 94 | 1019.0 |
| 20260902080833 | 70 | 16 | 0.0 | 0.0 | 0.00 | 0.04 | 0.03 | 94 | 1018.9 |
| 20260902075814 | 69 | 17 | 0.0 | 0.0 | 0.00 | 0.04 | 0.03 | 94 | 1018.9 |
| 20260902074840 | 70 | 17 | 0.0 | 0.0 | 0.00 | 0.04 | 0.03 | 94 | 1018.8 |
| 20260902073856 | 70 | 17 | 0.0 | 0.0 | 0.00 | 0.04 | 0.03 | 93 | 1018.9 |
| 20260902072822 | 70 | 17 | 0.0 | 2.0 | 0.00 | 0.04 | 0.03 | 94 | 1018.8 |
| 20260902071818 | 70 | 16 | 0.0 | 0.0 | 0.00 | 0.04 | 0.03 | 94 | 1018.7 |
| 20260902070813 | 70 | 17 | 0.0 | 0.0 | 0.00 | 0.04 | 0.03 | 93 | 1018.6 |
| 20260902065842 | 70 | 16 | 0.0 | 0.0 | 0.00 | 0.04 | 0.03 | 93 | 1018.6 |
| 20260902064817 | 70 | 16 | 0.0 | 0.0 | 0.00 | 0.04 | 0.03 | 93 | 1018.5 |
| 20260902063832 | 71 | 16 | 0.0 | 2.0 | 0.00 | 0.04 | 0.03 | 93 | 1018.3 |
| 20260902062828 | 71 | 16 | 0.0 | 0.0 | 0.00 | 0.04 | 0.03 | 93 | 1018.4 |
| 20260902061824 | 71 | 16 | 0.0 | 0.0 | 0.00 | 0.04 | 0.03 | 93 | 1018.0 |
| 20260902060840 | 71 | 16 | 0.0 | 0.0 | 0.00 | 0.04 | 0.03 | 93 | 1017.9 |
| 20260902055827 | 71 | 16 | 0.0 | 0.0 | 0.01 | 0.04 | 0.03 | 93 | 1017.9 |
| 20260902054844 | 71 | 16 | 0.0 | 3.0 | 0.02 | 0.04 | 0.03 | 93 | 1017.8 |
| 20260902053819 | 71 | 12 | 2.0 | 11.0 | 0.03 | 0.04 | 0.03 | 92 | 1017.7 |
| 20260902052834 | 72 | 28 | 1.0 | 9.0 | 0.03 | 0.04 | 0.03 | 92 | 1017.6 |
| 20260902051821 | 72 | 57 | 0.0 | 0.0 | 0.03 | 0.04 | 0.03 | 91 | 1017.2 |
| 20260902050816 | 72 | 57 | 0.0 | 0.0 | 0.03 | 0.04 | 0.03 | 91 | 1017.5 |
| 20260902045821 | 72 | 56 | 0.0 | 0.0 | 0.02 | 0.03 | 0.02 | 91 | 1018.1 |
| 20260902044817 | 72 | 56 | 0.0 | 5.0 | 0.01 | 0.02 | 0.01 | 90 | 1018.4 |
| 20260902043814 | 73 | 71 | 2.0 | 7.0 | 0.00 | 0.01 | 0.00 | 90 | 1018.8 |
| 20260902042830 | 73 | 32 | 4.0 | 9.0 | 0.00 | 0.01 | 0.00 | 89 | 1019.0 |
| 20260902041826 | 73 | 5 | 4.0 | 17.0 | 0.00 | 0.01 | 0.00 | 89 | 1018.9 |
| 20260902040841 | 74 | 355 | 6.0 | 12.0 | 0.00 | 0.01 | 0.00 | 89 | 1018.6 |
| 20260902035831 | 74 | 32 | 5.0 | 12.0 | 0.00 | 0.02 | 0.01 | 88 | 1018.4 |
| 20260902034848 | 75 | 11 | 2.0 | 5.0 | 0.00 | 0.02 | 0.01 | 86 | 1018.2 |
| 20260902033815 | 75 | 38 | 2.0 | 4.0 | 0.00 | 0.02 | 0.01 | 85 | 1017.9 |
| 20260902032841 | 75 | 13 | 1.0 | 6.0 | 0.00 | 0.02 | 0.01 | 85 | 1017.9 |
| 20260902031836 | 75 | 45 | 1.0 | 4.0 | 0.00 | 0.02 | 0.01 | 84 | 1017.9 |
| 20260902030824 | 75 | 46 | 0.0 | 0.0 | 0.00 | 0.02 | 0.01 | 84 | 1017.5 |
| 20260902025841 | 76 | 46 | 0.0 | 4.0 | 0.00 | 0.02 | 0.01 | 84 | 1017.1 |
| 20260902024835 | 76 | 96 | 1.0 | 7.0 | 0.00 | 0.02 | 0.01 | 83 | 1017.2 |
| 20260902023823 | 77 | 29 | 5.0 | 10.0 | 0.00 | 0.02 | 0.01 | 83 | 1017.2 |
| 20260902022818 | 77 | 26 | 7.0 | 12.0 | 0.00 | 0.02 | 0.01 | 83 | 1017.4 |
| 20260902021843 | 78 | 40 | 6.0 | 12.0 | 0.00 | 0.02 | 0.01 | 84 | 1017.1 |
| 20260902020837 | 78 | 34 | 4.0 | 6.0 | 0.00 | 0.02 | 0.01 | 86 | 1017.1 |
| 20260902015825 | 79 | 28 | 2.0 | 5.0 | 0.00 | 0.02 | 0.01 | 86 | 1016.7 |
| 20260902014821 | 79 | 96 | 2.0 | 8.0 | 0.00 | 0.02 | 0.01 | 85 | 1016.8 |
| 20260902013837 | 80 | 41 | 4.0 | 11.0 | 0.00 | 0.02 | 0.01 | 84 | 1016.5 |
| 20260902012849 | 81 | 15 | 2.0 | 5.0 | 0.00 | 0.02 | 0.01 | 83 | 1016.2 |
| 20260902011815 | 81 | 69 | 1.0 | 3.0 | 0.00 | 0.02 | 0.01 | 84 | 1015.9 |
| 20260902010841 | 81 | 74 | 1.0 | 4.0 | 0.00 | 0.02 | 0.01 | 84 | 1015.8 |
| 20260902005828 | 82 | 189 | 0.0 | 0.0 | 0.00 | 0.02 | 0.01 | 85 | 1015.8 |
| 20260902004815 | 82 | 189 | 0.0 | 0.0 | 0.00 | 0.02 | 0.01 | 84 | 1015.5 |
| 20260902003840 | 83 | 189 | 0.0 | 0.0 | 0.00 | 0.02 | 0.01 | 84 | 1015.4 |
| 20260902002826 | 83 | 189 | 0.0 | 0.0 | 0.00 | 0.02 | 0.01 | 84 | 1015.3 |
| 20260902001822 | 83 | 189 | 0.0 | 0.0 | 0.00 | 0.02 | 0.01 | 84 | 1015.1 |
| 20260902000838 | 83 | 189 | 0.0 | 0.0 | 0.00 | 0.02 | 0.01 | 84 | 1015.1 |
| 20260901235825 | 83 | 189 | 0.0 | 0.0 | 0.00 | 0.02 | 0.01 | 83 | 1014.4 |
| 20260901234820 | 84 | 189 | 0.0 | 0.0 | 0.00 | 0.02 | 0.01 | 83 | 1014.1 |
| 20260901233813 | 84 | 189 | 0.0 | 0.0 | 0.00 | 0.02 | 0.01 | 82 | 1014.3 |
| 20260901232829 | 85 | 189 | 0.0 | 0.0 | 0.00 | 0.02 | 0.01 | 81 | 1014.7 |
| 20260901231825 | 85 | 189 | 0.0 | 0.0 | 0.00 | 0.02 | 0.01 | 81 | 1014.9 |
| 20260901230841 | 86 | 189 | 0.0 | 0.0 | 0.00 | 0.02 | 0.01 | 80 | 1014.9 |
| 20260901225830 | 86 | 189 | 0.0 | 0.0 | 0.00 | 0.02 | 0.01 | 80 | 1015.1 |
| 20260901224847 | 87 | 189 | 0.0 | 0.0 | 0.00 | 0.02 | 0.01 | 80 | 1015.0 |
| 20260901223823 | 87 | 192 | 0.0 | 0.0 | 0.00 | 0.02 | 0.01 | 78 | 1015.2 |
| 20260901222838 | 88 | 190 | 0.0 | 0.0 | 0.00 | 0.02 | 0.01 | 77 | 1014.9 |
| 20260901221825 | 88 | 190 | 0.0 | 5.0 | 0.00 | 0.02 | 0.01 | 76 | 1014.8 |
| 20260901220821 | 89 | 219 | 1.0 | 2.0 | 0.00 | 0.02 | 0.01 | 74 | 1014.8 |
| 20260901215841 | 90 | 238 | 1.0 | 3.0 | 0.00 | 0.02 | 0.01 | 74 | 1014.8 |
| 20260901214856 | 91 | 196 | 1.0 | 3.0 | 0.00 | 0.02 | 0.01 | 74 | 1014.8 |
| 20260901213821 | 91 | 192 | 1.0 | 5.0 | 0.00 | 0.02 | 0.01 | 72 | 1015.0 |
| 20260901212817 | 91 | 306 | 2.0 | 6.0 | 0.00 | 0.02 | 0.01 | 72 | 1015.1 |
| 20260901211813 | 91 | 188 | 1.0 | 5.0 | 0.00 | 0.02 | 0.01 | 71 | 1015.1 |
| 20260901210845 | 90 | 167 | 2.0 | 6.0 | 0.00 | 0.02 | 0.01 | 70 | 1015.2 |
| 20260901205832 | 90 | 281 | 3.0 | 8.0 | 0.00 | 0.02 | 0.01 | 71 | 1015.3 |
| 20260901204827 | 91 | 163 | 3.0 | 7.0 | 0.00 | 0.02 | 0.01 | 71 | 1015.4 |
| 20260901203823 | 91 | 196 | 3.0 | 7.0 | 0.00 | 0.02 | 0.01 | 70 | 1015.3 |
| 20260901202839 | 91 | 174 | 2.0 | 4.0 | 0.00 | 0.02 | 0.01 | 72 | 1015.5 |
| 20260901201835 | 90 | 267 | 1.0 | 8.0 | 0.00 | 0.02 | 0.01 | 72 | 1015.6 |
| 20260901200851 | 90 | 182 | 2.0 | 4.0 | 0.00 | 0.02 | 0.01 | 73 | 1015.6 |
| 20260901195819 | 89 | 22 | 1.0 | 4.0 | 0.00 | 0.02 | 0.01 | 74 | 1015.8 |
| 20260901194836 | 88 | 215 | 1.0 | 6.0 | 0.00 | 0.02 | 0.01 | 76 | 1015.9 |
| 20260901193853 | 87 | 195 | 1.0 | 4.0 | 0.00 | 0.02 | 0.01 | 76 | 1016.1 |
| 20260901192818 | 88 | 253 | 1.0 | 8.0 | 0.00 | 0.02 | 0.01 | 75 | 1016.3 |
| 20260901191834 | 89 | 189 | 1.0 | 9.0 | 0.00 | 0.02 | 0.01 | 75 | 1016.3 |
| 20260901190839 | 88 | 163 | 4.0 | 9.0 | 0.00 | 0.02 | 0.01 | 74 | 1016.4 |
| 20260901185820 | 88 | 73 | 3.0 | 9.0 | 0.00 | 0.02 | 0.01 | 74 | 1016.4 |
| 20260901184815 | 88 | 163 | 4.0 | 8.0 | 0.00 | 0.02 | 0.01 | 73 | 1016.5 |
| 20260901183829 | 88 | 137 | 2.0 | 7.0 | 0.00 | 0.02 | 0.01 | 74 | 1016.5 |
| 20260901182823 | 88 | 194 | 3.0 | 9.0 | 0.00 | 0.02 | 0.01 | 74 | 1016.7 |
| 20260901181817 | 88 | 360 | 2.0 | 6.0 | 0.00 | 0.02 | 0.01 | 76 | 1016.5 |
| 20260901180828 | 88 | 205 | 2.0 | 7.0 | 0.00 | 0.02 | 0.01 | 74 | 1016.6 |
| 20260901175815 | 88 | 194 | 1.0 | 5.0 | 0.00 | 0.02 | 0.01 | 76 | 1016.5 |
| 20260901174827 | 88 | 165 | 2.0 | 7.0 | 0.00 | 0.02 | 0.01 | 79 | 1016.5 |
| 20260901173841 | 87 | 207 | 1.0 | 9.0 | 0.00 | 0.02 | 0.01 | 78 | 1016.5 |
| 20260901172848 | 86 | 189 | 0.0 | 3.0 | 0.00 | 0.02 | 0.01 | 81 | 1016.7 |
| 20260901171818 | 85 | 284 | 1.0 | 8.0 | 0.00 | 0.02 | 0.01 | 80 | 1016.7 |
| 20260901170831 | 85 | 70 | 0.0 | 3.0 | 0.00 | 0.02 | 0.01 | 82 | 1016.8 |
| 20260901165818 | 84 | 179 | 0.0 | 1.0 | 0.00 | 0.02 | 0.01 | 82 | 1016.9 |
| 20260901164828 | 83 | 180 | 1.0 | 5.0 | 0.00 | 0.02 | 0.01 | 82 | 1016.9 |
| 20260901163822 | 82 | 165 | 0.0 | 5.0 | 0.00 | 0.02 | 0.01 | 83 | 1017.1 |
| 20260901162836 | 82 | 113 | 0.0 | 1.0 | 0.01 | 0.02 | 0.01 | 84 | 1017.2 |
| 20260901161829 | 81 | 189 | 0.0 | 0.0 | 0.01 | 0.02 | 0.01 | 85 | 1017.3 |
| 20260901160842 | 81 | 189 | 0.0 | 0.0 | 0.01 | 0.02 | 0.01 | 84 | 1017.4 |
| 20260901155829 | 81 | 189 | 0.0 | 3.0 | 0.01 | 0.02 | 0.01 | 82 | 1017.5 |
| 20260901154842 | 81 | 160 | 0.0 | 2.0 | 0.01 | 0.02 | 0.01 | 82 | 1017.5 |
| 20260901153827 | 81 | 140 | 0.0 | 3.0 | 0.01 | 0.02 | 0.01 | 83 | 1017.5 |
| 20260901152839 | 82 | 155 | 0.0 | 5.0 | 0.00 | 0.01 | 0.00 | 82 | 1017.5 |
| 20260901151842 | 82 | 173 | 0.0 | 1.0 | 0.00 | 0.01 | 0.00 | 83 | 1017.6 |
| 20260901150855 | 81 | 195 | 1.0 | 3.0 | 0.00 | 0.01 | 0.00 | 82 | 1017.7 |
| 20260901145843 | 81 | 192 | 0.0 | 1.0 | 0.00 | 0.01 | 0.00 | 84 | 1017.8 |
| 20260901144815 | 81 | 191 | 0.0 | 3.0 | 0.00 | 0.01 | 0.00 | 84 | 1017.8 |
| 20260901143830 | 80 | 143 | 1.0 | 4.0 | 0.00 | 0.01 | 0.00 | 84 | 1017.7 |
| 20260901142814 | 79 | 187 | 2.0 | 7.0 | 0.00 | 0.01 | 0.00 | 86 | 1017.7 |
| 20260901141827 | 78 | 280 | 0.0 | 0.0 | 0.00 | 0.01 | 0.00 | 90 | 1017.6 |
| 20260901140818 | 76 | 181 | 0.0 | 0.0 | 0.00 | 0.01 | 0.00 | 92 | 1017.7 |
| 20260901135850 | 76 | 177 | 0.0 | 0.0 | 0.00 | 0.01 | 0.00 | 93 | 1017.7 |
| 20260901134813 | 75 | 169 | 0.0 | 0.0 | 0.00 | 0.01 | 0.00 | 94 | 1017.9 |
| 20260901133836 | 74 | 205 | 0.0 | 0.0 | 0.00 | 0.01 | 0.00 | 94 | 1017.8 |
| 20260901132850 | 74 | 209 | 0.0 | 0.0 | 0.00 | 0.01 | 0.00 | 94 | 1017.9 |
| 20260901131813 | 74 | 209 | 0.0 | 0.0 | 0.00 | 0.01 | 0.00 | 94 | 1017.8 |
| 20260901130829 | 73 | 209 | 0.0 | 0.0 | 0.00 | 0.01 | 0.00 | 94 | 1017.7 |
| 20260901125817 | 73 | 209 | 0.0 | 0.0 | 0.00 | 0.01 | 0.00 | 94 | 1017.9 |
| 20260901124901 | 73 | 209 | 0.0 | 0.0 | 0.00 | 0.01 | 0.00 | 94 | 1017.9 |
| 20260901123825 | 73 | 209 | 0.0 | 0.0 | 0.00 | 0.01 | 0.00 | 94 | 1018.0 |
| 20260901122818 | 73 | 209 | 0.0 | 0.0 | 0.00 | 0.01 | 0.00 | 95 | 1018.1 |
| 20260901121851 | 72 | 221 | 0.0 | 0.0 | 0.00 | 0.01 | 0.00 | 94 | 1018.1 |
| 20260901120822 | 72 | 221 | 0.0 | 0.0 | 0.00 | 0.01 | 0.00 | 95 | 1018.1 |
| 20260901115832 | 72 | 221 | 0.0 | 0.0 | 0.00 | 0.01 | 0.00 | 95 | 1018.1 |
| 20260901114826 | 72 | 221 | 0.0 | 0.0 | 0.00 | 0.01 | 0.00 | 95 | 1018.0 |
| 20260901113840 | 72 | 221 | 0.0 | 0.0 | 0.00 | 0.01 | 0.00 | 94 | 1018.0 |
| 20260901112816 | 72 | 221 | 0.0 | 0.0 | 0.00 | 0.01 | 0.00 | 94 | 1017.9 |
| 20260901111813 | 72 | 221 | 0.0 | 0.0 | 0.00 | 0.01 | 0.00 | 95 | 1017.8 |
| 20260901110823 | 72 | 221 | 0.0 | 0.0 | 0.00 | 0.01 | 0.00 | 95 | 1017.6 |